TimePST,TemperatureF,Dew PointF,Humidity,Sea Level PressureIn,VisibilityMPH,Wind Direction,Wind SpeedMPH,Gust SpeedMPH,PrecipitationIn,Events,Conditions,WindDirDegrees,DateUTC
12:56 AM,48.0,46.0,93,30.00,10.0,South,8.1,-,0.01,Rain,Light Rain,170,2005-01-02 08:56:00
1:56 AM,48.0,46.0,93,29.98,9.0,ESE,6.9,-,0.01,Rain,Light Rain,120,2005-01-02 09:56:00
2:56 AM,48.0,46.9,96,29.97,10.0,ESE,4.6,-,0.05,,Mostly Cloudy,120,2005-01-02 10:56:00
3:56 AM,48.0,46.9,96,29.96,10.0,SE,8.1,-,N/A,,Mostly Cloudy,140,2005-01-02 11:56:00
4:56 AM,48.0,46.9,96,29.94,10.0,SE,8.1,-,0.03,Rain,Light Rain,140,2005-01-02 12:56:00
5:56 AM,48.0,46.9,96,29.94,7.0,SSE,6.9,-,0.01,Rain,Light Rain,150,2005-01-02 13:56:00
6:56 AM,48.0,46.0,93,29.93,4.0,ESE,13.8,-,0.09,Rain,Rain,120,2005-01-02 14:56:00
7:56 AM,46.9,46.9,100,29.94,3.0,SSE,6.9,-,0.10,Rain,Rain,150,2005-01-02 15:56:00
8:56 AM,48.0,46.9,96,29.94,5.0,ESE,10.4,-,0.11,Rain,Light Rain,120,2005-01-02 16:56:00
9:56 AM,48.0,46.9,96,29.95,8.0,SE,9.2,-,0.03,Rain,Light Rain,140,2005-01-02 17:56:00
10:56 AM,48.2,46.4,93,29.93,6.0,SE,10.4,-,N/A,Rain,Rain,130,2005-01-02 18:56:00
11:56 AM,48.9,48.0,97,29.90,7.0,East,11.5,-,0.13,Rain,Light Rain,100,2005-01-02 19:56:00
12:56 PM,48.0,48.0,100,29.87,4.0,East,5.8,-,0.10,Rain,Rain,80,2005-01-02 20:56:00
1:41 PM,48.2,46.4,93,29.85,9.0,ESE,3.5,-,0.03,Rain,Light Rain,110,2005-01-02 21:41:00
1:56 PM,48.9,46.9,93,29.85,7.0,ESE,4.6,-,0.04,Rain,Light Rain,110,2005-01-02 21:56:00
2:56 PM,48.9,48.0,97,29.83,6.0,East,15.0,-,0.04,Rain,Light Rain,100,2005-01-02 22:56:00
3:56 PM,48.9,46.9,93,29.83,8.0,ESE,11.5,-,0.02,Rain,Light Rain,110,2005-01-02 23:56:00
4:35 PM,48.2,46.4,93,29.82,7.0,ESE,5.8,-,0.02,Rain,Light Rain,110,2005-01-03 00:35:00
4:56 PM,48.0,48.0,100,29.82,6.0,ESE,3.5,-,0.08,Rain,Rain,120,2005-01-03 00:56:00
5:56 PM,48.0,48.0,100,29.81,9.0,SE,4.6,-,0.08,Rain,Light Rain,140,2005-01-03 01:56:00
6:56 PM,46.9,46.9,100,29.81,8.0,SSE,5.8,-,0.07,Rain,Light Rain,150,2005-01-03 02:56:00
7:56 PM,46.9,45.0,93,29.81,7.0,ESE,8.1,-,0.08,Rain,Light Rain,120,2005-01-03 03:56:00
8:26 PM,46.4,46.4,100,29.81,8.0,ESE,8.1,-,0.04,Rain,Light Rain,110,2005-01-03 04:26:00
8:56 PM,46.9,46.0,97,29.81,10.0,SSE,4.6,-,0.07,Rain,Light Rain,160,2005-01-03 04:56:00
9:56 PM,46.9,46.0,97,29.83,10.0,South,5.8,-,0.01,Rain,Light Rain,170,2005-01-03 05:56:00
10:56 PM,46.9,46.9,100,29.83,10.0,SSE,6.9,-,0.00,Rain,Light Rain,160,2005-01-03 06:56:00
11:56 PM,46.9,46.0,97,29.84,10.0,South,5.8,-,N/A,,Overcast,190,2005-01-03 07:56:00